Skip Page Navigation
NASA JPL Caltech
NASA Logo - Jet Propulsion Laboratory + View the NASA Portal
+ Center for Near-Earth Object Studies
JPL Home Earth Solar System Stars & Galaxies Technology
JPL Solar System Dynamics
BODIES ORBITS EPHEMERIDES TOOLS PHYSICAL DATA DISCOVERY FAQ SITE MAP
JPL Small-Body Database Browser
Search: [ help ]  
233570 (2007 PU29)
Classification: Main-belt Asteroid          SPK-ID: 2233570
Ephemeris | Orbit Diagram | Orbital Elements | Mission Design | Physical Parameters | Discovery Circumstances | Close-Approach Data ]

[ show orbit diagram ]
Orbital Elements at Epoch 2459000.5 (2020-May-31.0) TDB
Reference: JPL 21 (heliocentric ecliptic J2000)
 Element Value Uncertainty (1-sigma)   Units 
e .1820325085621107 4.5142e-08  
a 2.782137599191112 2.2524e-08 au
q 2.275698112845386 1.3165e-07 au
i 8.461690195559628 4.9503e-06 deg
node 139.1331372959572 3.7637e-05 deg
peri 123.8533616598263 4.1264e-05 deg
M 324.9493609070748 1.8309e-05 deg
tp 2459165.528812829508
(2020-Nov-12.02881283)
8.6746e-05 TDB
period 1694.986857760734
4.64
2.0584e-05
5.636e-08
d
yr
n .2123910273119168 2.5793e-09 deg/d
Q 3.288577085536839 2.6624e-08 au
  Orbit Determination Parameters
   # obs. used (total)      457  
   data-arc span      8871 days (24.29 yr)  
   first obs. used      1996-01-13  
   last obs. used      2020-04-27  
   planetary ephem.      DE431  
   SB-pert. ephem.      SB431-N16  
   condition code      0  
   norm. resid. RMS      .56237  
   source      ORB  
   producer      Otto Matic  
   solution date      2020-May-21 11:11:48  

Additional Information
 Earth MOID = 1.27295 au 
 Jupiter MOID = 1.86295 au 
 T_jup = 3.293 
[ show covariance matrix ]

Ephemeris | Orbit Diagram | Orbital Elements | Mission Design | Physical Parameters | Discovery Circumstances | Close-Approach Data ]

Physical Parameter Table
Parameter Symbol Value Units Sigma Reference Notes
absolute magnitude H 15.6   n/a MPO433526  
diameter diameter 4.376 km 0.221 urn:nasa:pds:neowise_diameters_albedos::2.0[mainbelt] (http://adsabs.harvard.edu/abs/2011ApJ...741...68M)  
geometric albedo albedo 0.053   0.011 urn:nasa:pds:neowise_diameters_albedos::2.0[mainbelt] (http://adsabs.harvard.edu/abs/2011ApJ...741...68M)  

233570 (2007 PU29)          Discovered 2007-Aug-08 by LINEAR at Socorro
Reference: 20100228/Numbers.arcLast Updated: 2010-03-03

[ show close-approach data ]
Alternate Designations
 2007 PU29 = 2006 HO17 
Ephemeris | Orbit Diagram | Orbital Elements | Mission Design | Physical Parameters | Discovery Circumstances | Close-Approach Data ]
ABOUT SSD CREDITS/AWARDS PRIVACY/COPYRIGHT GLOSSARY LINKS
FirstGov 2020-Aug-10 19:59 UT
(server date/time)  
NASA Home Page
Site Manager:   Ryan S. Park
Webmaster  Alan B. Chamberlin